Metropolis, IL

8:29 AM CST on February 19, 2017 (GMT -0600)
Metropolis

Weather History for KM30 - April, 2013

Change the Weather History Date:

Thursday, April 11, 2013

  Actual Average (KPAH) Record (KPAH)
Temperature  
Mean Temperature 56 °F -  
Max Temperature 67 °F 69 °F 87 °F (2001)
Min Temperature 44 °F 45 °F 25 °F (1989)
Degree Days  
Heating Degree Days 9    
Growing Degree Days 6 (Base 50)    
Moisture  
Dew Point 55 °F    
Average Humidity 94    
Maximum Humidity 100    
Minimum Humidity 67    
Precipitation  
Precipitation 0.90 in - - ()
Sea Level Pressure  
Sea Level Pressure 29.69 in    
Wind  
Wind Speed 7 mph (WSW)    
Max Wind Speed 15 mph    
Max Gust Speed 26 mph    
Visibility 9 miles    
Events Rain , Thunderstorm    
Averages and records for this station are not official NWS values.
T = Trace of Precipitation, MM = Missing Value Source: NWS Daily Summary

Daily Weather History Graph

Daily Weather History Graph

Search for Another Location

Airport or City:

Trip Planner

Search our weather history database for the weather conditions in past years. The results will help you decide how hot, cold, wet, or windy it might be!

Date:

Astronomy

Apr. 11, 2013 Rise Set
Actual Time 6:25 AM CDT 7:26 PM CDT
Civil Twilight 5:59 AM CDT 7:53 PM CDT
Nautical Twilight 5:27 AM CDT 8:25 PM CDT
Astronomical Twilight 4:54 AM CDT 8:58 PM CDT
Moon 6:59 AM CDT (4/11) 8:58 PM CDT (4/11)
Length of Visible Light 13h 54m
Length of Day
13h 00m
New Moon, 2% of the Moon is Illuminated
Apr 11
New Moon
Apr 18
First Quarter
Apr 25
Full
May 2
Last Quarter
May 9
New

Hourly Weather History & Observations

Time (CDT) Temp. Windchill Dew Point Humidity Pressure Visibility Wind Dir Wind Speed Gust Speed Precip Events Conditions
12:15 AM 64.4 °F - 64.2 °F 99% 29.76 in 3.0 mi WNW 6.9 mph - 0.14 in Rain , Thunderstorm Heavy Thunderstorms and Rain
12:35 AM 64.4 °F - 63.9 °F 98% 29.76 in 5.0 mi WSW 6.9 mph - 0.25 in Rain , Thunderstorm Heavy Thunderstorms and Rain
12:55 AM 64.4 °F - 64.0 °F 99% 29.76 in 7.0 mi West 4.6 mph - 0.30 in Rain , Thunderstorm Rain
1:15 AM 64.4 °F - 64.4 °F 100% 29.73 in 4.0 mi Calm Calm - 0.06 in Rain Heavy Rain
1:35 AM 64.4 °F - 64.4 °F 100% 29.73 in 2.5 mi Calm Calm - 0.15 in Rain Heavy Rain
1:55 AM 64.0 °F - 64.0 °F 100% 29.70 in 3.0 mi East 4.6 mph - 0.25 in Rain Heavy Rain
2:15 AM 64.4 °F - 64.4 °F 100% 29.70 in 3.0 mi Calm Calm - 0.08 in Rain , Thunderstorm Thunderstorms and Rain
2:35 AM 64.4 °F - 64.4 °F 100% 29.69 in 10.0 mi Calm Calm - 0.12 in Rain Light Rain
2:55 AM 64.4 °F - 64.4 °F 100% 29.65 in 5.0 mi SE 10.4 mph - 0.16 in Rain Rain
3:15 AM 64.6 °F - 64.6 °F 100% 29.60 in 10.0 mi SE 13.8 mph 21.9 mph 0.02 in Rain Light Rain
3:35 AM 66.2 °F - 66.2 °F 100% 29.63 in 10.0 mi SSE 11.5 mph 26.5 mph 0.02 in Rain Light Rain
3:55 AM 67.1 °F - 65.8 °F 96% 29.64 in 10.0 mi South 10.4 mph 21.9 mph 0.02 in   Overcast
4:15 AM 67.1 °F - 65.8 °F 96% 29.64 in 10.0 mi SSE 10.4 mph 20.7 mph N/A   Overcast
4:35 AM 66.7 °F - 65.3 °F 95% 29.64 in 10.0 mi South 10.4 mph 17.3 mph N/A   Mostly Cloudy
4:55 AM 66.4 °F - 64.4 °F 93% 29.66 in 10.0 mi South 10.4 mph - N/A   Scattered Clouds
5:15 AM 66.7 °F - 64.4 °F 92% 29.65 in 10.0 mi SSW 11.5 mph - N/A   Mostly Cloudy
5:35 AM 66.6 °F - 63.5 °F 90% 29.66 in 10.0 mi SSW 12.7 mph 17.3 mph N/A   Overcast
5:55 AM 65.8 °F - 63.3 °F 92% 29.66 in 10.0 mi SW 15.0 mph 21.9 mph N/A   Overcast
6:15 AM 64.4 °F - 62.6 °F 94% 29.65 in 10.0 mi SSW 6.9 mph 17.3 mph N/A   Overcast
6:35 AM 63.5 °F - 61.5 °F 93% 29.68 in 10.0 mi SSW 12.7 mph 18.4 mph N/A   Overcast
6:55 AM 62.6 °F - 61.0 °F 94% 29.68 in 10.0 mi SW 9.2 mph - N/A   Overcast
7:15 AM 61.7 °F - 60.4 °F 96% 29.68 in 10.0 mi SW 6.9 mph - N/A   Overcast
7:35 AM 61.2 °F - 60.1 °F 96% 29.69 in 10.0 mi SW 5.8 mph - N/A   Overcast
7:55 AM 60.8 °F - 60.1 °F 97% 29.70 in 10.0 mi SSW 5.8 mph - N/A   Overcast
8:15 AM 59.4 °F - 59.2 °F 99% 29.69 in 10.0 mi WSW 8.1 mph - N/A   Overcast
8:35 AM 58.6 °F - 58.6 °F 100% 29.70 in 7.0 mi WSW 5.8 mph - N/A   Overcast
8:55 AM 58.1 °F - 58.1 °F 100% 29.70 in 4.0 mi WSW 4.6 mph - N/A   Overcast
9:15 AM 58.1 °F - 58.1 °F 100% 29.72 in 10.0 mi SW 9.2 mph - N/A   Overcast
9:35 AM 57.6 °F - 57.4 °F 99% 29.73 in 7.0 mi SW 5.8 mph 16.1 mph N/A Rain Rain
9:55 AM 57.0 °F - 57.0 °F 100% 29.73 in 7.0 mi SW 5.8 mph - 0.01 in Rain Rain
10:15 AM 56.3 °F - 56.3 °F 100% 29.72 in 10.0 mi SW 6.9 mph - N/A   Drizzle
10:35 AM 55.9 °F - 55.6 °F 99% 29.72 in 10.0 mi SSW 5.8 mph - N/A Rain Light Rain
10:55 AM 55.6 °F - 55.4 °F 99% 29.73 in 10.0 mi SW 8.1 mph - 0.01 in Rain Rain
11:15 AM 54.9 °F - 54.9 °F 100% 29.69 in 7.0 mi Calm Calm - 0.02 in Rain Rain
11:35 AM 54.9 °F - 54.9 °F 100% 29.70 in 10.0 mi SW 4.6 mph - 0.04 in Rain Rain
11:55 AM 54.5 °F - 54.5 °F 100% 29.73 in 10.0 mi WSW 9.2 mph - 0.05 in Rain Light Rain
12:15 PM 53.6 °F - 53.6 °F 100% 29.72 in 7.0 mi SW 6.9 mph - 0.01 in Rain Rain
12:35 PM 53.6 °F - 53.6 °F 100% 29.72 in 7.0 mi WSW 8.1 mph - 0.04 in Rain Rain
12:55 PM 53.6 °F - 53.6 °F 100% 29.71 in 7.0 mi WSW 6.9 mph - 0.06 in Rain Rain
1:15 PM 53.1 °F - 53.1 °F 100% 29.70 in 5.0 mi SW 6.9 mph - 0.02 in Rain Rain
1:35 PM 53.1 °F - 52.9 °F 99% 29.70 in 10.0 mi WSW 8.1 mph - 0.02 in Rain Rain
1:55 PM 52.7 °F - 52.2 °F 98% 29.69 in 10.0 mi WSW 9.2 mph - 0.03 in Rain Light Rain
2:15 PM 52.7 °F - 52.2 °F 98% 29.70 in 10.0 mi WSW 5.8 mph - N/A Rain Rain
2:35 PM 52.3 °F - 52.0 °F 99% 29.68 in 10.0 mi Calm Calm - N/A Rain Light Rain
2:55 PM 51.6 °F - 51.3 °F 99% 29.68 in 5.0 mi West 9.2 mph - 0.01 in   Overcast
3:15 PM 51.1 °F - 50.9 °F 99% 29.66 in 1.5 mi Calm Calm - N/A   Overcast
3:35 PM 51.6 °F - 51.4 °F 99% 29.67 in 10.0 mi West 10.4 mph - N/A   Overcast
3:55 PM 51.8 °F - 51.6 °F 99% 29.66 in 10.0 mi West 4.6 mph - N/A   Overcast
4:15 PM 52.2 °F - 51.3 °F 97% 29.66 in 10.0 mi West 5.8 mph - N/A   Overcast
4:35 PM 51.8 °F - 50.7 °F 96% 29.65 in 10.0 mi WSW 4.6 mph - N/A   Overcast
4:55 PM 52.0 °F - 50.7 °F 95% 29.63 in 10.0 mi Calm Calm - N/A   Overcast
5:15 PM 52.2 °F - 50.9 °F 95% 29.65 in 10.0 mi West 5.8 mph - N/A   Overcast
5:35 PM 52.2 °F - 50.9 °F 95% 29.65 in 10.0 mi WSW 3.5 mph - N/A   Overcast
5:55 PM 52.7 °F - 51.1 °F 94% 29.67 in 10.0 mi WSW 4.6 mph - N/A   Overcast
6:15 PM 52.7 °F - 50.5 °F 92% 29.68 in 10.0 mi WSW 8.1 mph - N/A   Overcast
6:35 PM 52.9 °F - 50.0 °F 90% 29.67 in 10.0 mi West 6.9 mph - N/A   Overcast
6:55 PM 52.7 °F - 49.3 °F 88% 29.65 in 10.0 mi West 6.9 mph - N/A   Overcast
7:15 PM 52.3 °F - 49.3 °F 89% 29.65 in 10.0 mi WSW 8.1 mph - N/A   Overcast
7:35 PM 51.8 °F - 49.1 °F 90% 29.67 in 10.0 mi WSW 8.1 mph - N/A   Overcast
7:55 PM 51.4 °F - 48.6 °F 90% 29.67 in 10.0 mi West 6.9 mph - N/A   Mostly Cloudy
8:15 PM 51.3 °F - 48.2 °F 89% 29.67 in 10.0 mi West 5.8 mph - N/A   Overcast
8:35 PM 51.4 °F - 48.0 °F 88% 29.69 in 10.0 mi WSW 4.6 mph - N/A   Overcast
8:55 PM 51.1 °F - 47.7 °F 88% 29.70 in 10.0 mi West 4.6 mph - N/A   Overcast
9:15 PM 51.3 °F - 46.8 °F 85% 29.71 in 10.0 mi WNW 9.2 mph - N/A   Overcast
9:35 PM 50.9 °F - 45.5 °F 82% 29.70 in 10.0 mi WNW 10.4 mph - N/A   Overcast
9:55 PM 50.2 °F - 43.7 °F 78% 29.71 in 10.0 mi NW 8.1 mph - N/A   Overcast
10:15 PM 48.7 °F - 41.7 °F 77% 29.73 in 10.0 mi NW 8.1 mph - N/A   Scattered Clouds
10:35 PM 48.2 °F - 40.3 °F 74% 29.73 in 10.0 mi WNW 9.2 mph - N/A   Scattered Clouds
10:55 PM 47.8 °F - 38.5 °F 70% 29.75 in 10.0 mi WNW 13.8 mph 18.4 mph N/A   Mostly Cloudy
11:15 PM 46.4 °F 41.1 °F 36.1 °F 67% 29.76 in 10.0 mi WNW 11.5 mph 18.4 mph N/A   Overcast
11:35 PM 45.1 °F 39.5 °F 35.4 °F 69% 29.77 in 10.0 mi WNW 11.5 mph - N/A   Mostly Cloudy
11:55 PM 44.4 °F 39.0 °F 35.1 °F 70% 29.77 in 10.0 mi WNW 10.4 mph 16.1 mph N/A   Scattered Clouds